Location: Mahannah Oil Field
(37.4664°N, 96.6003°W)
Time: 01:16:07
(UTC+00:00)

A-11 Canister half - Pass Details

Date: 27 January 2021
Orbit: 1524 x 1684 km, 47.3° (Epoch: 25 February)

Event Time Altitude Azimuth Distance (km) Brightness Sun altitude
Rises 03:55:02 0° 298° (WNW) 4,789 12.2 -49.5°
Reaches altitude 10° 03:58:23 10° 291° (WNW) 3,825 11.5 -50.1°
Enters shadow 04:04:17 32° 258° (WSW) 2,547 10.3 -51.2°
Maximum altitude 04:06:58 36° 229° (SW) 2,374 - -51.7°
Drops below altitude 10° 04:15:47 10° 167° (SSE) 3,913 - -53.4°
Sets 04:19:18 0° 159° (SSE) 4,910 - -54.0°
